BIG621 LEBB-EICK

Flight info

Callsign BIG621
Flight time 1h 30m
Altitude 38000
Route DOSUL DCT DELOG DCT RIXIX DCT TIQUH DCT LARLA DCT ARKIL DCT ORTOM ORTOM1G
Aircraft A319/M-SDE3FGHIRWY/LB1

Departure

Time 2026-05-04 21:27
Airport Bilbao Airport (LEBB)

Arrival

Time 2026-05-04 22:57
Airport Cork International Airport (EICK)
Time Latitude Longitude Altitude Speed Heading
2026-05-04 20:59 43.30425 -2.90635 155 ft 0 kts 26°
2026-05-04 21:16 43.30410 -2.90646 156 ft 2 kts 26°
2026-05-04 21:16 43.30396 -2.90655 156 ft 2 kts 26°
2026-05-04 21:17 43.30387 -2.90662 156 ft 2 kts 40°
2026-05-04 21:17 43.30376 -2.90685 156 ft 2 kts 77°
2026-05-04 21:17 43.30376 -2.90705 156 ft 2 kts 103°
2026-05-04 21:17 43.30377 -2.90713 155 ft 0 kts 114°
2026-05-04 21:18 43.30381 -2.90723 155 ft 0 kts 117°
2026-05-04 21:22 43.30371 -2.90701 156 ft 4 kts 121°
2026-05-04 21:22 43.30353 -2.90655 156 ft 6 kts 116°
2026-05-04 21:22 43.30321 -2.90599 155 ft 9 kts 141°
2026-05-04 21:23 43.30299 -2.90578 152 ft 6 kts 144°
2026-05-04 21:23 43.30238 -2.90534 146 ft 11 kts 178°
2026-05-04 21:23 43.30200 -2.90547 143 ft 8 kts 202°
2026-05-04 21:23 43.30134 -2.90576 138 ft 9 kts 168°
2026-05-04 21:24 43.30086 -2.90492 135 ft 13 kts 116°
2026-05-04 21:24 43.30041 -2.90371 134 ft 15 kts 116°
2026-05-04 21:24 43.29990 -2.90234 132 ft 17 kts 116°
2026-05-04 21:24 43.29933 -2.90072 128 ft 20 kts 116°
2026-05-04 21:25 43.29888 -2.89950 122 ft 14 kts 117°
2026-05-04 21:25 43.29834 -2.89800 114 ft 20 kts 117°
2026-05-04 21:25 43.29783 -2.89659 105 ft 5 kts 116°
2026-05-04 21:25 43.29757 -2.89602 104 ft 3 kts 137°
2026-05-04 21:26 43.29720 -2.89594 103 ft 7 kts 197°
2026-05-04 21:26 43.29675 -2.89645 103 ft 9 kts 227°
2026-05-04 21:26 43.29650 -2.89725 105 ft 8 kts 275°
2026-05-04 21:26 43.29659 -2.89798 108 ft 25 kts 283°
2026-05-04 21:27 43.29961 -2.90658 128 ft 121 kts 296°
2026-05-04 21:27 43.30413 -2.91891 391 ft 155 kts 296°
2026-05-04 21:27 43.30729 -2.92768 854 ft 154 kts 297°
2026-05-04 21:27 43.31352 -2.94495 1750 ft 157 kts 298°
2026-05-04 21:28 43.31840 -2.95874 2353 ft 166 kts 297°
2026-05-04 21:28 43.32389 -2.97325 2777 ft 181 kts 305°
2026-05-04 21:28 43.32934 -2.98269 3028 ft 195 kts 317°
2026-05-04 21:28 43.34028 -2.99481 3532 ft 212 kts 325°
2026-05-04 21:29 43.35616 -3.01324 4267 ft 237 kts 319°
2026-05-04 21:29 43.36437 -3.02358 4647 ft 250 kts 318°
2026-05-04 21:29 43.38195 -3.04634 5574 ft 268 kts 317°
2026-05-04 21:29 43.39540 -3.06391 6483 ft 273 kts 319°
2026-05-04 21:30 43.41113 -3.07811 7412 ft 276 kts 337°
2026-05-04 21:30 43.42964 -3.08468 8375 ft 279 kts 350°
2026-05-04 21:30 43.44890 -3.08821 9264 ft 284 kts 352°
2026-05-04 21:30 43.46833 -3.09284 10093 ft 287 kts 339°
2026-05-04 21:31 43.50118 -3.12373 11726 ft 293 kts 318°
2026-05-04 21:31 43.51693 -3.14182 12497 ft 298 kts 318°
2026-05-04 21:31 43.53302 -3.15985 13251 ft 303 kts 319°
2026-05-04 21:32 43.54958 -3.17792 14000 ft 307 kts 319°
2026-05-04 21:32 43.56643 -3.19598 14732 ft 311 kts 320°
2026-05-04 21:32 43.58365 -3.21428 15443 ft 316 kts 319°
2026-05-04 21:32 43.60113 -3.23275 16138 ft 320 kts 319°
2026-05-04 21:33 43.61882 -3.25145 16819 ft 324 kts 319°
2026-05-04 21:33 43.63680 -3.27044 17497 ft 328 kts 319°
2026-05-04 21:33 43.65494 -3.28964 18156 ft 332 kts 319°
2026-05-04 21:33 43.67339 -3.30915 18837 ft 336 kts 319°
2026-05-04 21:34 43.69196 -3.32859 19512 ft 339 kts 320°
2026-05-04 21:34 43.71082 -3.34787 20166 ft 343 kts 320°
2026-05-04 21:34 43.73006 -3.36743 20814 ft 347 kts 320°
2026-05-04 21:34 43.74306 -3.38065 21232 ft 349 kts 320°
2026-05-04 21:35 43.76911 -3.40722 22075 ft 354 kts 319°
2026-05-04 21:35 43.78899 -3.42755 22676 ft 358 kts 319°
2026-05-04 21:35 43.80899 -3.44807 23265 ft 361 kts 319°
2026-05-04 21:35 43.82939 -3.46900 23850 ft 365 kts 320°
2026-05-04 21:36 43.84983 -3.49000 24407 ft 368 kts 320°
2026-05-04 21:36 43.86352 -3.50408 24766 ft 370 kts 320°
2026-05-04 21:36 43.88410 -3.52526 25299 ft 373 kts 320°
2026-05-04 21:36 43.91185 -3.55384 25976 ft 377 kts 320°
2026-05-04 21:37 43.93301 -3.57564 26458 ft 380 kts 320°
2026-05-04 21:37 43.95498 -3.59828 26968 ft 383 kts 320°
2026-05-04 21:37 43.97634 -3.62034 27452 ft 386 kts 320°
2026-05-04 21:37 43.99801 -3.64276 27927 ft 388 kts 320°
2026-05-04 21:38 44.01954 -3.66504 28358 ft 392 kts 319°
2026-05-04 21:38 44.03428 -3.68029 28655 ft 394 kts 319°
2026-05-04 21:38 44.06353 -3.71062 29234 ft 397 kts 319°
2026-05-04 21:38 44.08582 -3.73377 29610 ft 400 kts 319°
2026-05-04 21:39 44.10815 -3.75698 29967 ft 403 kts 319°
2026-05-04 21:39 44.13041 -3.78011 30301 ft 405 kts 319°
2026-05-04 21:39 44.15326 -3.80391 30675 ft 407 kts 319°
2026-05-04 21:39 44.17583 -3.82744 30951 ft 410 kts 320°
2026-05-04 21:40 44.19866 -3.85126 31272 ft 412 kts 320°
2026-05-04 21:40 44.21395 -3.86725 31487 ft 413 kts 320°
2026-05-04 21:40 44.24450 -3.89923 31864 ft 416 kts 320°
2026-05-04 21:40 44.26765 -3.92345 32142 ft 418 kts 320°
2026-05-04 21:41 44.29137 -3.94710 32424 ft 421 kts 323°
2026-05-04 21:41 44.31612 -3.96885 32706 ft 424 kts 327°
2026-05-04 21:41 44.34174 -3.98842 32979 ft 427 kts 330°
2026-05-04 21:41 44.36883 -4.00619 33265 ft 430 kts 334°
2026-05-04 21:42 44.39695 -4.02173 33527 ft 433 kts 338°
2026-05-04 21:42 44.42539 -4.03592 33791 ft 435 kts 338°
2026-05-04 21:42 44.45375 -4.04977 34112 ft 435 kts 339°
2026-05-04 21:42 44.47293 -4.05912 34332 ft 436 kts 339°
2026-05-04 21:43 44.51139 -4.07797 34717 ft 437 kts 339°
2026-05-04 21:43 44.54003 -4.09208 34992 ft 438 kts 339°
2026-05-04 21:43 44.55924 -4.10157 35178 ft 439 kts 338°
2026-05-04 21:43 44.59742 -4.12048 35611 ft 437 kts 338°
2026-05-04 21:44 44.62590 -4.13460 35962 ft 436 kts 338°
2026-05-04 21:44 44.65463 -4.14889 36265 ft 435 kts 338°
2026-05-04 21:44 44.68335 -4.16319 36497 ft 436 kts 338°
2026-05-04 21:44 44.71176 -4.17737 36704 ft 438 kts 338°
2026-05-04 21:45 44.74028 -4.19160 36910 ft 439 kts 339°
2026-05-04 21:45 44.75962 -4.20126 37051 ft 440 kts 338°
2026-05-04 21:45 44.79802 -4.22045 37334 ft 441 kts 339°
2026-05-04 21:45 44.82711 -4.23503 37542 ft 442 kts 339°
2026-05-04 21:46 44.84655 -4.24476 37674 ft 443 kts 339°
2026-05-04 21:46 44.87543 -4.25925 37865 ft 444 kts 339°
2026-05-04 21:46 44.91400 -4.27862 37979 ft 446 kts 339°
2026-05-04 21:47 44.97231 -4.30796 37987 ft 446 kts 339°
2026-05-04 21:47 45.03087 -4.33748 37979 ft 446 kts 339°
2026-05-04 21:48 45.08921 -4.36695 37979 ft 446 kts 339°
2026-05-04 21:48 45.13802 -4.39165 37980 ft 446 kts 339°
2026-05-04 21:49 45.20603 -4.42616 37977 ft 446 kts 339°
2026-05-04 21:49 45.26463 -4.45598 37974 ft 446 kts 339°
2026-05-04 21:50 45.32257 -4.48551 37972 ft 446 kts 339°
2026-05-04 21:50 45.38104 -4.51539 37972 ft 446 kts 339°
2026-05-04 21:51 45.43905 -4.54505 37973 ft 446 kts 339°
2026-05-04 21:51 45.49752 -4.57502 37976 ft 446 kts 339°
2026-05-04 21:52 45.54617 -4.60000 37974 ft 446 kts 339°
2026-05-04 21:52 45.61419 -4.63504 37970 ft 446 kts 339°
2026-05-04 21:53 45.67226 -4.66503 37976 ft 445 kts 339°
2026-05-04 21:53 45.72062 -4.69006 37977 ft 445 kts 339°
2026-05-04 21:54 45.78867 -4.72535 37972 ft 445 kts 339°
2026-05-04 21:54 45.84674 -4.75555 37977 ft 445 kts 339°
2026-05-04 21:55 45.90450 -4.78564 37971 ft 445 kts 339°
2026-05-04 21:55 45.96262 -4.81600 37977 ft 444 kts 339°
2026-05-04 21:56 46.01087 -4.84125 37974 ft 445 kts 339°
2026-05-04 21:56 46.06899 -4.87174 37976 ft 444 kts 339°
2026-05-04 21:57 46.12761 -4.90258 37972 ft 444 kts 339°
2026-05-04 21:57 46.18579 -4.93322 37978 ft 444 kts 339°
2026-05-04 21:58 46.24385 -4.96389 37977 ft 445 kts 339°
2026-05-04 21:58 46.31165 -4.99979 37972 ft 445 kts 339°
2026-05-04 21:59 46.36017 -5.02556 37975 ft 444 kts 339°
2026-05-04 21:59 46.42743 -5.06135 37976 ft 444 kts 339°
2026-05-04 22:00 46.48526 -5.09229 37972 ft 444 kts 339°
2026-05-04 22:00 46.54291 -5.12444 37976 ft 444 kts 339°
2026-05-04 22:01 46.59103 -5.15150 37975 ft 444 kts 339°
2026-05-04 22:01 46.64859 -5.18391 37976 ft 445 kts 339°
2026-05-04 22:02 46.71573 -5.22179 37973 ft 444 kts 339°
2026-05-04 22:02 46.77322 -5.25427 37978 ft 444 kts 339°
2026-05-04 22:03 46.82105 -5.28133 37981 ft 444 kts 339°
2026-05-04 22:03 46.88806 -5.31933 37973 ft 443 kts 339°
2026-05-04 22:04 46.94521 -5.35184 37977 ft 443 kts 339°
2026-05-04 22:04 47.00236 -5.38442 37979 ft 443 kts 339°
2026-05-04 22:05 47.05018 -5.41175 37976 ft 443 kts 339°
2026-05-04 22:05 47.10760 -5.44463 37976 ft 443 kts 339°
2026-05-04 22:06 47.16479 -5.47743 37974 ft 443 kts 339°
2026-05-04 22:06 47.23142 -5.51576 37976 ft 443 kts 339°
2026-05-04 22:07 47.27904 -5.54321 37976 ft 443 kts 339°
2026-05-04 22:07 47.33620 -5.57623 37974 ft 443 kts 339°
2026-05-04 22:08 47.39376 -5.60959 37981 ft 442 kts 339°
2026-05-04 22:08 47.46005 -5.64809 37979 ft 442 kts 340°
2026-05-04 22:09 47.51700 -5.68123 37981 ft 441 kts 339°
2026-05-04 22:09 47.57408 -5.71453 37983 ft 441 kts 339°
2026-05-04 22:10 47.62142 -5.74221 37983 ft 441 kts 339°
2026-05-04 22:10 47.67828 -5.77554 37985 ft 441 kts 339°
2026-05-04 22:11 47.73505 -5.80888 37988 ft 440 kts 339°
2026-05-04 22:11 47.79207 -5.84244 37984 ft 440 kts 339°
2026-05-04 22:12 47.84873 -5.87589 37991 ft 439 kts 339°
2026-05-04 22:12 47.91468 -5.91491 37992 ft 438 kts 339°
2026-05-04 22:13 47.96160 -5.94276 37994 ft 438 kts 339°
2026-05-04 22:13 48.01849 -5.97656 37998 ft 438 kts 339°
2026-05-04 22:14 48.08447 -6.01588 38005 ft 438 kts 339°
2026-05-04 22:14 48.14091 -6.04959 37998 ft 438 kts 339°
2026-05-04 22:15 48.19721 -6.08332 38003 ft 438 kts 339°
2026-05-04 22:15 48.24400 -6.11143 37997 ft 438 kts 339°
2026-05-04 22:16 48.30980 -6.15107 38000 ft 437 kts 339°
2026-05-04 22:16 48.36595 -6.18496 38004 ft 437 kts 340°
2026-05-04 22:17 48.41243 -6.21539 38004 ft 438 kts 335°
2026-05-04 22:17 48.46531 -6.25985 38000 ft 439 kts 330°
2026-05-04 22:18 48.52589 -6.31596 38001 ft 438 kts 330°
2026-05-04 22:18 48.56906 -6.35609 38001 ft 438 kts 330°
2026-05-04 22:19 48.62073 -6.40412 37993 ft 438 kts 330°
2026-05-04 22:19 48.67258 -6.45239 37999 ft 438 kts 330°
2026-05-04 22:20 48.72434 -6.50066 38004 ft 438 kts 330°
2026-05-04 22:20 48.77591 -6.54886 37999 ft 437 kts 330°
2026-05-04 22:21 48.83629 -6.60546 37992 ft 438 kts 330°
2026-05-04 22:21 48.87922 -6.64580 37991 ft 438 kts 330°
2026-05-04 22:22 48.93962 -6.70271 37976 ft 437 kts 329°
2026-05-04 22:22 48.98255 -6.74327 37981 ft 437 kts 329°
2026-05-04 22:23 49.03406 -6.79202 37997 ft 437 kts 329°
2026-05-04 22:23 49.08576 -6.84109 37999 ft 436 kts 329°
2026-05-04 22:24 49.14544 -6.89789 38011 ft 435 kts 329°
2026-05-04 22:24 49.18798 -6.93847 38001 ft 435 kts 329°
2026-05-04 22:25 49.23924 -6.98749 38016 ft 435 kts 329°
2026-05-04 22:25 49.29876 -7.04460 38028 ft 435 kts 329°
2026-05-04 22:26 49.35013 -7.09390 38027 ft 434 kts 330°
2026-05-04 22:26 49.39380 -7.13061 38028 ft 433 kts 336°
2026-05-04 22:27 49.45784 -7.17448 38030 ft 432 kts 338°
2026-05-04 22:27 49.50387 -7.20513 38033 ft 432 kts 338°
2026-05-04 22:28 49.55889 -7.24197 38032 ft 431 kts 338°
2026-05-04 22:28 49.61366 -7.27880 38030 ft 431 kts 338°
2026-05-04 22:29 49.66867 -7.31592 37903 ft 432 kts 338°
2026-05-04 22:29 49.69600 -7.33441 37586 ft 429 kts 338°
2026-05-04 22:29 49.72310 -7.35278 37269 ft 426 kts 339°
2026-05-04 22:29 49.74975 -7.37087 36871 ft 423 kts 339°
2026-05-04 22:30 49.77674 -7.38920 36372 ft 421 kts 339°
2026-05-04 22:30 49.80335 -7.40729 35835 ft 422 kts 339°
2026-05-04 22:30 49.83010 -7.42551 35360 ft 423 kts 339°
2026-05-04 22:30 49.85717 -7.44394 34851 ft 425 kts 339°
2026-05-04 22:31 49.88398 -7.46226 34463 ft 425 kts 340°
2026-05-04 22:31 49.91090 -7.48065 33941 ft 425 kts 340°
2026-05-04 22:31 49.93780 -7.49905 33395 ft 424 kts 340°
2026-05-04 22:31 49.96448 -7.51731 32942 ft 421 kts 340°
2026-05-04 22:32 49.99116 -7.53560 32481 ft 418 kts 340°
2026-05-04 22:32 50.01760 -7.55375 32029 ft 414 kts 341°
2026-05-04 22:32 50.04363 -7.57166 31632 ft 409 kts 341°
2026-05-04 22:32 50.06956 -7.58952 31256 ft 403 kts 341°
2026-05-04 22:33 50.09491 -7.60698 30880 ft 398 kts 341°
2026-05-04 22:33 50.11996 -7.62425 30441 ft 394 kts 341°
2026-05-04 22:33 50.14485 -7.64141 29994 ft 390 kts 341°
2026-05-04 22:33 50.16938 -7.65835 29555 ft 387 kts 341°
2026-05-04 22:34 50.19395 -7.67537 29101 ft 383 kts 341°
2026-05-04 22:34 50.21799 -7.69200 28666 ft 380 kts 341°
2026-05-04 22:34 50.24192 -7.70859 28248 ft 376 kts 341°
2026-05-04 22:34 50.26560 -7.72500 27795 ft 373 kts 340°
2026-05-04 22:35 50.28917 -7.74138 27359 ft 370 kts 340°
2026-05-04 22:35 50.31247 -7.75759 26934 ft 367 kts 340°
2026-05-04 22:35 50.33559 -7.77370 26506 ft 364 kts 340°
2026-05-04 22:35 50.35877 -7.78985 26028 ft 363 kts 340°
2026-05-04 22:36 50.38176 -7.80590 25575 ft 361 kts 340°
2026-05-04 22:36 50.40443 -7.82175 25173 ft 358 kts 340°
2026-05-04 22:36 50.42693 -7.83747 24713 ft 357 kts 340°
2026-05-04 22:36 50.44940 -7.85321 24271 ft 355 kts 340°
2026-05-04 22:37 50.47195 -7.86905 23885 ft 351 kts 340°
2026-05-04 22:37 50.49402 -7.88454 23491 ft 348 kts 340°
2026-05-04 22:37 50.51594 -7.89996 23104 ft 344 kts 340°
2026-05-04 22:37 50.53762 -7.91520 22738 ft 341 kts 340°
2026-05-04 22:38 50.55899 -7.93025 22383 ft 337 kts 340°
2026-05-04 22:38 50.58051 -7.94544 22010 ft 335 kts 340°
2026-05-04 22:38 50.60158 -7.96031 21655 ft 332 kts 340°
2026-05-04 22:38 50.62237 -7.97499 21303 ft 329 kts 340°
2026-05-04 22:39 50.64310 -7.98959 20965 ft 326 kts 341°
2026-05-04 22:39 50.66398 -8.00255 20586 ft 323 kts 345°
2026-05-04 22:39 50.68536 -8.01345 20201 ft 321 kts 347°
2026-05-04 22:39 50.71363 -8.02705 19737 ft 319 kts 347°
2026-05-04 22:40 50.72771 -8.03381 19486 ft 318 kts 347°
2026-05-04 22:40 50.74879 -8.04392 19111 ft 317 kts 347°
2026-05-04 22:40 50.76977 -8.05403 18744 ft 316 kts 347°
2026-05-04 22:40 50.79063 -8.06411 18375 ft 315 kts 347°
2026-05-04 22:41 50.81176 -8.07434 17987 ft 315 kts 347°
2026-05-04 22:41 50.83263 -8.08445 17605 ft 315 kts 347°
2026-05-04 22:41 50.85322 -8.09445 17234 ft 314 kts 347°
2026-05-04 22:41 50.87425 -8.10466 16847 ft 313 kts 346°
2026-05-04 22:42 50.89496 -8.11473 16467 ft 313 kts 346°
2026-05-04 22:42 50.91569 -8.12485 16084 ft 312 kts 346°
2026-05-04 22:42 50.93632 -8.13491 15712 ft 311 kts 346°
2026-05-04 22:42 50.95684 -8.14493 15343 ft 310 kts 346°
2026-05-04 22:43 50.97728 -8.15493 14976 ft 308 kts 346°
2026-05-04 22:43 50.99781 -8.16497 14605 ft 307 kts 346°
2026-05-04 22:43 51.01808 -8.17491 14241 ft 306 kts 346°
2026-05-04 22:43 51.03833 -8.18483 13868 ft 305 kts 346°
2026-05-04 22:44 51.05854 -8.19474 13490 ft 304 kts 346°
2026-05-04 22:44 51.07868 -8.20459 13100 ft 305 kts 345°
2026-05-04 22:44 51.09904 -8.21460 12683 ft 305 kts 345°
2026-05-04 22:44 51.11914 -8.22450 12305 ft 304 kts 345°
2026-05-04 22:45 51.13924 -8.23439 11920 ft 303 kts 345°
2026-05-04 22:45 51.17912 -8.25407 11176 ft 300 kts 345°
2026-05-04 22:45 51.19914 -8.26394 10812 ft 299 kts 345°
2026-05-04 22:46 51.21880 -8.27366 10534 ft 294 kts 345°
2026-05-04 22:46 51.23796 -8.28314 10256 ft 290 kts 345°
2026-05-04 22:46 51.25706 -8.29250 9992 ft 285 kts 346°
2026-05-04 22:46 51.27612 -8.29975 9724 ft 280 kts 351°
2026-05-04 22:47 51.29518 -8.30441 9462 ft 276 kts 354°
2026-05-04 22:47 51.31427 -8.30830 9202 ft 272 kts 354°
2026-05-04 22:47 51.33278 -8.31199 8910 ft 270 kts 354°
2026-05-04 22:47 51.35144 -8.31571 8592 ft 268 kts 354°
2026-05-04 22:48 51.36983 -8.31940 8267 ft 267 kts 354°
2026-05-04 22:48 51.38814 -8.32309 7945 ft 266 kts 354°
2026-05-04 22:48 51.40630 -8.32678 7642 ft 264 kts 354°
2026-05-04 22:48 51.42439 -8.33042 7327 ft 262 kts 354°
2026-05-04 22:49 51.44265 -8.33411 7017 ft 261 kts 353°
2026-05-04 22:49 51.46038 -8.33770 6708 ft 260 kts 353°
2026-05-04 22:49 51.47823 -8.34132 6393 ft 259 kts 353°
2026-05-04 22:49 51.50205 -8.34621 5972 ft 258 kts 353°
2026-05-04 22:50 51.51984 -8.34986 5688 ft 255 kts 353°
2026-05-04 22:50 51.53722 -8.35341 5420 ft 253 kts 353°
2026-05-04 22:50 51.54875 -8.35577 5254 ft 250 kts 353°
2026-05-04 22:50 51.56593 -8.35931 4883 ft 245 kts 354°
2026-05-04 22:51 51.58258 -8.36273 4504 ft 240 kts 354°
2026-05-04 22:51 51.59889 -8.36605 4134 ft 236 kts 354°
2026-05-04 22:51 51.61491 -8.36933 3800 ft 230 kts 354°
2026-05-04 22:51 51.63055 -8.37253 3502 ft 223 kts 354°
2026-05-04 22:52 51.64568 -8.37694 3219 ft 217 kts 347°
2026-05-04 22:52 51.65984 -8.38407 3058 ft 208 kts 343°
2026-05-04 22:52 51.67288 -8.39143 3018 ft 194 kts 342°
2026-05-04 22:52 51.68507 -8.39858 3035 ft 178 kts 342°
2026-05-04 22:53 51.69636 -8.40528 3099 ft 167 kts 342°
2026-05-04 22:53 51.70665 -8.41142 3091 ft 149 kts 342°
2026-05-04 22:53 51.71611 -8.41704 2945 ft 139 kts 342°
2026-05-04 22:53 51.72488 -8.42225 2737 ft 130 kts 342°
2026-05-04 22:54 51.73311 -8.42713 2541 ft 121 kts 342°
2026-05-04 22:54 51.74087 -8.43171 2379 ft 118 kts 342°
2026-05-04 22:54 51.74857 -8.43626 2231 ft 118 kts 342°
2026-05-04 22:54 51.75626 -8.44081 2081 ft 118 kts 341°
2026-05-04 22:55 51.76393 -8.44535 1932 ft 118 kts 341°
2026-05-04 22:55 51.77165 -8.44992 1776 ft 117 kts 341°
2026-05-04 22:55 51.77937 -8.45449 1610 ft 117 kts 341°
2026-05-04 22:55 51.78695 -8.45897 1446 ft 117 kts 341°
2026-05-04 22:56 51.79459 -8.46351 1291 ft 117 kts 340°
2026-05-04 22:56 51.80219 -8.46800 1127 ft 116 kts 340°
2026-05-04 22:56 51.80980 -8.47249 967 ft 116 kts 340°
2026-05-04 22:56 51.81733 -8.47694 815 ft 116 kts 339°
2026-05-04 22:57 51.82487 -8.48139 655 ft 115 kts 339°
2026-05-04 22:57 51.83230 -8.48578 546 ft 115 kts 339°
2026-05-04 22:57 51.83979 -8.49012 476 ft 108 kts 339°
2026-05-04 22:57 51.84493 -8.49322 492 ft 41 kts 338°
2026-05-04 22:58 51.84677 -8.49435 495 ft 17 kts 345°
2026-05-04 22:58 51.84768 -8.49430 497 ft 12 kts 57°
2026-05-04 22:58 51.84789 -8.49358 500 ft 4 kts 68°
2026-05-04 22:58 51.84798 -8.49323 502 ft 2 kts 70°
2026-05-04 22:59 51.84803 -8.49297 503 ft 1 kts 70°
2026-05-04 22:59 51.84805 -8.49290 503 ft 0 kts 70°
2026-05-04 22:59 51.84808 -8.49277 504 ft 0 kts 67°
2026-05-04 22:59 51.84813 -8.49264 504 ft 2 kts 57°
2026-05-04 23:00 51.84818 -8.49254 505 ft 1 kts 46°
2026-05-04 23:00 51.84843 -8.49235 506 ft 4 kts 15°
2026-05-04 23:00 51.84862 -8.49205 507 ft 2 kts 64°
2026-05-04 23:00 51.84866 -8.49191 508 ft 0 kts 65°
2026-05-04 23:01 51.84869 -8.49180 509 ft 4 kts 69°
2026-05-04 23:01 51.84885 -8.49112 512 ft 4 kts 71°
2026-05-04 23:01 51.84890 -8.49087 513 ft 0 kts 70°
2026-05-04 23:01 51.84890 -8.49086 513 ft 0 kts 69°